Theta_e
333 318 311 308 297 292 286 290 293 296 298 302 304 303 304 309 313 306 326 330 331 335 351 360 362 363 362 362 361 360 360 359 359 359 359 359 358 358 357 357 354 352 349 345 343 341 338 337 337
331 316 308 301 292 288 288 293 294 298 303 305 304 304 304 304 315 325 325 329 333 336 349 356 362 363 362 362 360 359 359 359 359 359 359 358 358 357 355 354 352 350 346 344 342 339 339 338 337
326 318 302 297 291 289 290 294 297 301 304 302 302 307 309 317 326 327 329 332 332 338 348 353 361 361 362 362 361 359 359 359 359 359 358 358 357 356 355 354 353 349 346 344 342 339 339 339 338
311 314 304 295 292 296 296 297 298 301 303 303 302 302 309 326 329 331 332 333 333 338 346 353 360 360 361 361 360 359 359 358 358 358 358 358 357 356 355 354 352 351 346 344 341 340 340 340 338
310 303 296 291 294 297 299 300 299 300 300 302 303 302 303 322 333 330 331 333 332 339 343 350 358 359 360 361 360 359 359 358 358 358 358 358 357 356 355 353 351 349 348 344 342 342 343 342 340
305 299 290 290 293 299 300 301 299 300 302 304 306 302 306 326 331 328 331 330 332 338 341 349 357 358 358 359 359 359 358 357 357 358 357 357 357 355 354 352 351 350 349 347 345 345 345 344 344
303 294 291 292 295 299 303 302 301 301 304 304 309 303 309 320 329 327 326 329 333 338 341 346 350 354 358 357 357 358 357 357 357 357 357 357 357 355 354 352 351 350 348 348 347 347 346 345 344
309 300 296 296 296 297 305 305 304 305 306 312 310 305 305 318 330 329 331 332 332 336 341 343 346 349 349 351 357 357 357 357 357 357 356 356 357 355 354 351 350 350 349 349 349 348 347 347 345
308 299 295 298 300 300 305 303 308 312 309 310 310 310 312 328 330 328 328 330 334 336 337 340 342 343 345 345 350 355 356 356 357 356 356 354 351 351 350 350 349 349 349 349 349 348 348 347 346
301 295 298 305 305 304 306 307 306 308 308 307 310 313 314 317 325 324 324 324 328 331 336 338 340 342 342 345 343 345 346 348 350 349 348 347 342 341 344 347 347 348 348 348 349 348 348 345 342
300 295 301 305 306 307 305 305 309 306 304 307 307 310 313 314 315 322 325 325 327 330 333 338 338 340 340 340 339 342 343 342 343 341 340 339 337 338 341 338 341 339 345 340 345 346 343 340 340
294 299 303 303 305 303 303 306 305 306 306 311 312 313 313 312 311 313 312 319 329 330 331 335 337 336 338 337 338 339 340 339 339 340 338 337 333 331 334 334 334 335 336 336 337 339 340 340 338
290 295 297 298 298 298 301 299 300 302 306 308 310 311 311 311 312 313 317 319 322 329 332 335 335 334 336 334 335 334 337 336 337 337 338 337 333 330 330 332 332 333 334 333 334 336 337 337 337
292 293 294 296 296 297 297 299 299 302 305 305 307 307 307 308 311 311 315 318 324 330 335 337 337 334 333 332 331 333 334 334 335 335 336 336 334 330 329 329 330 330 332 332 332 333 334 334 335
291 287 290 293 295 294 297 294 296 301 303 302 303 304 304 305 306 308 311 313 317 320 332 337 338 337 334 332 330 330 332 333 332 333 335 336 334 330 329 328 328 330 330 331 332 332 332 332 333
286 285 281 288 293 294 295 290 297 299 299 299 301 301 303 302 303 306 308 310 313 314 318 327 340 339 336 334 332 331 332 332 332 332 334 336 335 332 329 328 327 329 329 329 330 330 329 329 330
283 278 281 287 291 292 291 287 295 298 297 297 298 300 301 302 304 305 306 306 310 313 315 316 328 338 337 337 335 333 335 335 335 334 334 335 336 334 331 329 329 328 328 328 329 329 330 327 328
281 281 283 284 289 290 288 289 293 296 296 296 297 298 300 301 302 305 306 307 308 312 314 316 319 329 336 337 334 334 334 335 336 335 334 336 336 336 333 331 331 329 328 328 328 329 329 330 330
287 285 284 287 291 290 288 290 291 294 293 293 295 296 297 299 303 305 307 305 307 307 312 315 317 320 332 332 330 331 332 334 335 337 337 337 337 337 334 333 332 331 329 329 329 329 329 328 330
286 284 284 288 292 290 289 289 292 293 293 294 295 295 296 297 297 301 304 306 305 305 307 310 315 318 324 334 333 334 335 336 337 338 338 339 338 338 335 334 333 332 331 329 330 330 327 329 329
285 284 286 286 290 290 287 285 287 291 293 294 294 295 295 295 297 302 305 306 304 305 306 307 309 316 320 331 334 332 333 333 333 335 337 339 340 339 338 336 336 334 334 331 330 330 330 327 329
283 291 289 288 284 278 287 277 284 288 289 291 292 292 294 299 302 303 304 304 304 306 308 307 305 310 317 327 334 334 333 332 335 336 337 338 340 341 340 337 337 336 336 334 333 332 332 332 328
286 291 288 287 283 280 282 278 281 287 286 288 290 295 298 299 300 301 302 303 304 306 306 308 308 308 314 321 335 334 333 335 333 331 333 334 336 340 342 340 338 337 337 337 335 332 331 332 332
292 287 284 282 280 275 280 279 278 282 286 289 293 297 299 299 300 300 302 303 303 305 306 309 308 309 311 318 327 335 334 331 328 329 331 332 335 338 341 341 340 339 338 336 336 336 333 332 331
286 280 274 273 273 274 282 279 282 288 291 291 294 296 298 298 298 298 300 301 303 305 307 309 309 308 310 316 322 333 336 333 330 331 329 332 333 337 339 340 339 339 339 338 338 336 334 331 329
282 281 274 270 273 273 282 277 281 289 292 296 298 298 298 297 298 300 301 302 303 305 307 308 308 307 309 312 318 325 334 335 332 331 330 333 335 337 340 340 340 340 339 338 337 335 334 331 330
281 279 282 277 277 273 277 281 287 290 290 295 295 296 295 297 299 300 301 303 305 307 307 308 308 308 309 313 316 323 329 332 330 329 332 333 336 338 340 341 339 339 338 337 337 335 333 331 330
285 287 277 275 273 272 276 278 279 285 288 290 293 294 295 297 298 300 302 304 306 309 309 308 310 309 309 313 315 323 327 330 329 330 332 334 336 339 339 339 339 338 338 337 336 334 333 331 328
282 280 281 279 275 270 272 276 286 287 289 290 292 294 294 297 297 300 302 305 308 309 310 311 312 312 312 314 314 323 325 327 327 330 333 336 337 339 339 340 338 337 336 335 334 331 330 329 327
286 283 282 275 275 278 278 279 290 289 290 293 293 296 296 298 299 301 303 306 308 309 309 309 313 319 323 321 316 321 325 327 329 331 334 336 337 339 339 339 337 336 335 334 332 330 330 328 326
Wind_Speed
5 4 1 4 3 6 2 6 1 4 4 4 4 4 11 9 10 9 6 13 17 18 17 19 21 21 20 21 21 21 21 20 19 18 17 17 16 16 16 15 14 14 13 12 10 9 8 8 8
2 2 4 3 5 1 5 4 5 6 6 10 9 5 5 12 10 4 5 8 14 19 16 17 23 22 21 20 21 21 22 21 20 19 18 18 17 16 16 15 15 14 13 12 11 9 9 8 8
1 2 3 4 4 6 4 5 4 5 9 4 5 6 4 5 4 5 5 12 13 16 15 16 24 23 21 20 20 20 21 21 21 21 20 18 17 16 15 14 14 14 13 13 12 10 9 8 7
1 3 4 3 8 4 4 4 4 7 4 3 3 9 6 3 1 9 12 15 17 14 13 16 22 24 21 20 19 19 20 20 21 21 20 19 18 16 14 14 14 13 13 13 12 11 9 8 7
3 2 1 4 4 3 3 6 4 5 4 7 4 8 5 6 8 5 18 16 19 15 11 13 20 21 22 19 18 18 18 19 20 20 20 19 18 17 16 15 14 13 12 12 12 11 9 8 7
3 2 2 6 2 2 2 6 3 3 5 9 9 6 4 6 5 6 6 3 11 15 10 11 16 18 21 20 19 18 17 17 19 20 20 19 18 18 16 15 14 14 13 12 12 11 10 8 6
6 4 4 3 2 4 3 1 3 5 6 6 8 3 8 11 7 9 7 7 7 10 8 8 10 13 18 18 17 16 16 16 16 17 18 18 18 17 16 15 15 14 13 13 12 11 10 9 8
5 4 2 3 3 3 3 4 3 4 4 8 7 6 9 7 7 8 11 8 7 5 6 7 7 9 10 10 15 15 15 15 15 14 15 16 17 17 17 15 15 15 14 13 13 12 12 10 9
4 2 4 2 4 3 1 4 3 3 3 4 4 3 5 1 3 8 7 5 4 1 3 5 7 7 8 8 10 13 17 16 15 13 14 11 6 9 12 13 15 15 14 14 13 12 12 10 10
4 4 8 4 2 1 5 3 7 5 10 3 2 6 5 4 2 5 5 1 1 3 3 3 4 7 7 7 7 7 7 7 7 7 6 4 4 5 7 10 15 13 13 12 12 12 12 11 4
4 4 2 1 1 4 5 7 4 4 5 3 9 13 10 1 4 3 6 8 7 3 4 5 5 5 9 7 5 4 5 5 6 8 7 5 3 4 3 2 3 4 10 4 7 6 5 5 4
1 3 2 1 4 4 4 9 5 11 5 6 7 8 6 9 7 6 6 6 6 12 10 7 5 5 6 5 5 6 6 5 6 7 9 7 4 4 3 3 3 3 3 4 4 3 4 5 5
3 1 2 5 6 6 7 11 14 13 5 6 6 7 9 8 8 6 7 6 7 8 8 12 9 6 5 6 3 5 8 6 6 5 7 7 7 6 4 3 3 3 3 4 4 4 4 5 5
1 2 4 5 4 5 6 12 4 5 8 9 6 8 8 8 8 6 6 6 6 7 9 10 10 12 7 7 6 5 3 4 4 4 5 8 6 5 5 5 5 5 5 4 4 5 5 5 4
0 3 4 6 7 8 6 11 8 4 5 6 5 6 8 8 9 8 7 9 7 6 5 12 14 14 15 13 7 5 4 4 4 3 4 5 5 5 6 5 5 6 5 5 4 4 3 4 4
3 5 1 5 2 5 7 10 5 7 7 7 7 6 4 7 7 7 8 8 9 8 6 6 7 12 14 14 11 9 8 6 6 7 7 12 12 9 6 6 7 5 5 5 5 4 4 4 5
5 3 3 7 2 2 3 3 5 7 5 5 6 5 5 4 5 6 7 8 9 9 9 7 7 8 13 13 9 7 6 6 6 6 7 9 8 10 9 7 7 6 5 5 5 3 4 3 4
2 1 1 3 4 5 7 5 5 7 6 6 7 7 5 4 5 6 7 8 8 9 10 9 5 8 7 4 4 4 6 7 6 8 8 10 9 11 9 7 7 6 5 5 5 4 4 3 4
2 2 3 4 3 5 6 10 7 6 5 8 8 7 8 7 5 3 3 7 7 6 9 9 9 9 4 3 3 3 8 9 7 8 13 12 9 9 11 7 7 8 8 8 8 4 5 4 2
3 1 2 5 6 6 10 20 11 7 6 7 6 7 8 8 9 6 5 5 6 7 6 8 8 10 5 5 4 4 5 8 8 6 6 11 13 13 10 9 9 9 6 7 8 7 3 3 5
2 3 2 4 5 6 7 11 4 1 3 4 5 5 6 6 8 9 9 8 7 7 8 7 8 10 9 8 3 1 1 2 3 4 7 12 13 12 12 11 8 9 8 7 9 9 8 4 3
1 4 2 2 4 2 4 10 5 5 4 3 6 5 5 7 7 7 12 11 12 11 8 9 8 8 9 9 8 12 11 10 8 8 8 6 11 11 10 10 9 9 7 8 9 8 8 5 4
4 1 3 2 2 3 4 3 6 5 6 6 6 7 7 8 6 9 12 14 15 13 11 10 9 9 10 9 12 11 13 10 5 4 7 6 6 7 10 11 11 10 8 8 9 9 8 5 4
3 3 5 4 3 3 6 4 5 2 4 4 5 7 7 8 8 9 10 11 13 14 12 8 9 13 9 9 11 15 14 9 5 5 7 5 4 5 8 10 9 9 8 9 9 9 9 8 4
6 6 5 6 3 6 4 4 10 10 12 7 7 8 8 7 5 7 11 15 16 17 17 12 11 16 11 10 12 13 16 13 14 9 7 7 5 4 9 10 9 7 8 8 8 8 8 8 6
4 7 6 6 4 5 1 10 9 8 8 5 6 7 8 9 8 7 10 11 16 20 19 15 12 17 14 12 14 13 15 11 10 9 6 8 8 8 9 9 9 8 9 8 7 5 6 7 6
1 3 3 0 1 2 6 8 12 10 6 5 7 6 9 7 9 13 16 12 12 17 21 17 15 17 15 15 14 13 13 14 12 13 10 9 7 7 10 10 9 9 9 8 8 6 7 7 6
4 5 2 3 3 6 5 8 12 10 11 5 7 9 11 7 8 10 15 17 12 16 16 18 18 19 18 16 14 13 14 14 14 10 12 11 8 10 11 11 10 10 9 9 8 6 6 8 4
1 0 4 4 5 4 5 7 6 5 5 7 7 9 9 10 9 9 13 12 14 17 17 19 21 21 17 14 14 14 12 13 10 11 10 10 9 11 12 12 11 10 10 9 8 7 9 8 7
5 7 6 5 4 4 3 16 7 7 4 6 9 12 9 9 11 9 10 14 14 17 20 19 21 20 18 15 12 14 11 11 12 12 10 11 11 11 12 12 11 11 10 10 10 10 8 9 8
Wind_Direction
324 320 63 41 56 62 255 245 267 319 307 237 205 168 214 192 170 210 317 165 137 153 162 165 169 164 160 155 154 151 151 148 147 146 145 147 149 151 154 154 156 156 155 150 141 136 134 132 125
326 100 42 75 102 134 260 249 212 209 240 277 270 228 225 243 231 296 116 199 153 150 160 166 169 165 163 161 157 157 154 152 153 151 153 156 157 160 160 159 160 159 157 152 148 147 148 142 132
204 65 79 122 145 187 219 219 211 242 261 245 292 207 210 241 166 212 231 142 138 152 162 170 170 165 165 164 163 163 159 158 157 156 159 162 161 163 164 164 166 164 164 161 158 157 158 149 140
59 26 46 118 223 227 222 223 244 313 315 307 311 305 316 292 224 175 138 140 144 152 162 173 174 165 165 165 166 170 166 163 162 163 163 166 165 166 170 170 172 171 169 168 167 163 164 160 157
56 61 91 267 227 229 220 270 291 305 296 279 351 294 270 2 352 90 143 154 151 155 162 177 177 169 163 165 171 174 173 172 170 169 168 170 172 172 176 174 177 177 176 173 175 168 171 171 174
59 87 89 242 139 101 276 243 293 308 284 292 353 329 298 333 32 64 100 137 150 150 148 169 178 176 162 167 175 176 177 184 179 175 174 175 177 177 178 178 181 182 181 176 181 174 173 177 184
144 111 221 243 169 28 313 237 317 310 311 331 306 54 303 5 20 71 50 73 110 132 138 166 174 184 167 171 175 179 178 188 193 184 180 179 180 180 181 184 184 185 184 181 183 179 180 184 193
124 115 234 255 87 239 249 336 277 55 298 311 354 3 343 320 37 66 61 45 57 98 136 168 170 180 172 173 180 181 184 186 195 196 191 187 185 184 187 188 189 186 186 186 185 183 188 188 197
117 115 221 203 146 258 26 332 304 261 258 317 351 17 327 319 67 65 68 52 31 60 180 168 174 177 172 162 183 185 191 193 194 201 202 192 189 192 195 193 195 192 189 188 188 188 192 193 201
154 160 209 159 18 293 315 272 326 326 320 300 358 337 349 14 41 97 91 97 267 256 280 286 211 191 168 176 178 177 189 192 186 188 186 188 183 189 192 198 203 197 195 195 193 194 195 200 192
165 201 214 89 214 284 283 288 295 302 310 59 325 313 323 61 350 268 198 188 204 199 217 210 232 226 183 183 172 180 193 189 193 182 178 172 179 203 200 193 207 181 200 185 193 195 198 192 190
129 236 215 237 285 309 276 306 242 248 242 288 291 276 295 310 301 277 283 251 188 190 199 185 203 244 242 181 184 191 193 198 201 200 183 175 174 194 199 195 201 191 186 180 191 186 190 198 206
128 353 314 291 284 265 280 254 268 263 277 286 313 301 300 306 295 280 261 274 259 210 200 184 171 209 231 262 213 189 199 201 204 184 191 184 181 189 171 185 192 206 184 183 193 191 192 209 216
206 264 269 264 250 246 245 268 235 293 352 319 301 307 316 324 305 329 304 264 235 210 190 176 200 186 190 222 228 228 211 191 187 183 196 197 189 175 176 183 204 209 203 188 189 199 193 205 201
299 316 311 225 219 231 204 268 245 21 41 8 352 16 12 7 6 1 328 315 313 295 254 189 193 191 194 200 216 214 190 184 191 153 166 190 198 187 186 182 208 216 197 179 185 201 194 195 202
85 42 10 289 358 264 160 253 359 10 50 344 331 348 7 339 331 332 334 327 310 312 272 272 225 191 198 205 209 204 190 182 190 182 186 198 195 179 192 186 213 194 184 178 187 180 206 215 197
5 172 202 313 290 294 159 286 294 335 10 313 311 308 319 324 316 319 320 319 308 298 299 280 232 226 204 211 201 194 202 202 204 191 212 178 205 196 191 199 214 174 176 184 184 182 184 195 220
233 332 234 242 297 10 305 245 285 300 313 288 292 296 300 286 262 291 309 321 315 312 303 304 275 239 232 230 194 188 177 212 220 211 212 183 191 199 196 190 206 180 173 181 181 171 186 201 210
77 228 228 259 284 354 287 286 282 262 248 274 277 282 293 287 270 306 315 313 326 319 311 308 312 289 172 178 188 194 213 213 208 221 216 186 195 183 197 198 190 188 191 191 185 153 178 207 180
180 217 312 306 319 343 305 292 286 239 223 209 236 273 272 321 323 331 334 322 313 306 291 300 290 286 251 204 221 221 185 213 210 209 214 185 189 187 189 190 193 194 185 176 172 166 163 184 183
200 157 215 232 322 297 324 294 264 318 218 225 245 251 317 301 311 315 326 315 303 304 298 282 261 264 272 243 201 130 117 121 137 184 203 203 191 182 196 191 186 186 186 187 178 185 166 164 179
341 196 216 261 31 290 60 286 262 232 259 282 290 308 283 294 308 304 319 322 318 308 299 296 289 277 271 252 231 219 222 218 205 209 215 193 175 189 181 187 191 185 185 179 185 181 181 143 160
213 39 332 307 271 15 266 268 274 322 345 318 285 278 287 287 284 306 314 318 311 313 306 296 288 273 270 250 226 228 232 232 218 148 153 182 175 174 177 185 191 188 185 179 174 170 168 160 154
67 26 21 50 76 7 263 176 272 169 176 255 252 277 292 311 318 316 310 311 309 309 309 296 289 286 267 256 241 230 229 216 209 169 170 172 163 176 184 190 188 187 179 175 181 173 161 172 160
73 52 339 347 10 223 208 296 241 264 290 215 253 286 294 300 299 310 315 314 312 309 307 301 298 289 284 255 249 231 228 216 208 202 172 162 152 189 196 183 180 180 180 169 170 160 159 168 170
204 151 165 235 223 237 57 248 249 216 239 216 237 267 296 305 314 314 312 301 304 306 302 292 292 293 288 276 252 235 229 225 217 202 177 181 182 189 167 179 181 174 169 160 162 158 162 156 154
152 165 191 156 305 330 223 289 303 280 265 256 295 285 282 298 312 321 317 316 312 310 299 290 289 286 279 268 255 237 224 219 210 200 187 182 174 159 168 171 168 161 157 155 160 159 153 155 157
153 164 69 12 267 269 260 258 242 287 279 279 292 291 298 303 301 311 318 314 314 322 305 291 292 281 276 271 251 232 222 213 203 189 184 174 166 154 160 166 166 158 159 158 160 155 144 153 144
18 42 79 118 148 206 306 260 220 235 246 273 274 281 283 291 290 304 310 308 311 327 316 306 301 289 282 269 241 223 212 201 187 190 181 173 154 159 166 165 156 161 156 157 161 154 150 146 144
173 196 158 135 227 216 240 268 272 259 299 314 288 291 287 274 285 295 307 311 316 322 318 313 307 295 289 271 228 209 196 180 176 172 172 163 167 166 160 157 152 155 163 154 160 151 154 150 163